Regional Weather Roundup
Issued by NWS

Home | Current Version | Previous Version | Graphics & Text | Print | Product List | Glossary On
Versions: 1 2 3 4 5 6 7 8 9 10 11 12 13 14 15 16 17 18 19 20 21 22 23 24 25 26 27 28 29 30 31 32 33 34 35 36 37 38 39 40 41 42 43 44 45 46 47 48 49 50
000
ASUS43 KMPX 010810
RWRMN
WEATHER ROUNDUP FOR MINNESOTA
NATIONAL WEATHER SERVICE TWIN CITIES/CHANHASSEN MN
300 AM CDT WED JUL 01 2015


NOTE: "FAIR" INDICATES FEW OR NO CLOUDS BELOW 12,000 FEET WITH NO
SIGNIFICANT WEATHER AND/OR OBSTRUCTIONS TO VISIBILITY. N/A MEANS
CURRENT SKY AND/OR WEATHER CONDITIONS ARE NOT AVAILABLE.

MNZ060>063-068>070-010900-
   Twin Cities Metro

CITY           SKY/WX    TMP DP  RH WIND       PRES   REMARKS
TWIN CITIES    CLOUDY    62  51  67 E7        29.96S
ST PAUL        PTCLDY    61  50  67 SE7       29.97S
CRYSTAL        MOCLDY    63  50  62 SE3       29.95S
BLAINE         MOCLDY    61  54  77 E6        29.96F
LAKEVILLE      MOCLDY    57  55  94 CALM      29.97R
EDEN PRAIRIE   CLOUDY    62  53  72 E5        29.95S
SOUTH ST PAUL  MOCLDY    62  48  61 E5        29.96F
LAKE ELMO      FAIR      59  50  72 E5        29.98F
$$
MNZ001>005-007-008-013>017-022>024-027-028-010900-
   Northwest Minnesota

CITY           SKY/WX    TMP DP  RH WIND       PRES   REMARKS
BEMIDJI        PTCLDY    53  51  95 CALM      29.96R
HALLOCK        CLEAR     57  55  94 CALM      29.93S
ROSEAU         MOCLDY    57  54  88 CALM      29.95S
WARROAD        PTCLDY    59  54  82 S3        29.96S
THIEF RVR FALL CLEAR     59  52  77 E5        29.95S
CROOKSTON      PTCLDY    61  54  77 CALM      29.94S
FOSSTON        PTCLDY    55  48  76 CALM      29.95S
DETROIT LAKES  CLOUDY    64  59  82 CALM      29.95S
MOORHEAD       CLOUDY    64  63  94 CALM      29.92S
PARK RAPIDS    MOCLDY    64  56  75 SE6       29.95S
MAHNOMEN       FAIR      59  56  89 E5        29.94S
$$
MNZ006-009>011-018-025>026-010900-
   North Central Minnesota

CITY           SKY/WX    TMP DP  RH WIND       PRES   REMARKS
BAUDETTE       PTCLDY    54  52  93 CALM      29.96R
FLAG ISLAND    CLEAR     66  57  72 S7        29.94S
INTL FALLS     CLEAR     45  44  97 CALM      29.97S
WASKISH        MOCLDY    55  52  88 E3        29.96S
BIG FORK       MOCLDY    52  48  87 CALM      29.98R
LONGVILLE      MOCLDY    55  54  94 CALM      29.96S
GRAND RAPIDS   MOCLDY    52  48  87 SE5       29.98S
CRANE LAKE     CLEAR     45  43  93 S1        29.99S
ORR            CLEAR     52  46  82 SE1       29.96S
COOK           PTCLDY    46  46 100 CALM      29.99S
WALKER         FAIR      57  55  91 CALM      29.95S
$$
MNZ012-019>021-037-010900-
   Northeast Minnesota

CITY           SKY/WX    TMP DP  RH WIND       PRES   REMARKS
DULUTH         PTCLDY    49  45  86 E5        29.99S
ELY            PTCLDY    45  45 100 CALM      29.99S
HIBBING        PTCLDY    45  44  97 CALM      29.99S
EVELETH        PTCLDY    45  43  93 CALM      30.00S
DULUTH HARBOR  CLEAR     55  54  94 E5        30.00S
TWO HARBORS    PTCLDY    46  43  87 N1        29.98F
SILVER BAY     CLEAR     43  41  93 CALM      29.98S
GRAND MARAIS     N/A     50  41  71 NW5       29.99S
G MARAIS ARPRT CLEAR     37  36  93 W3        30.01S
$$
MNZ029>031-032-039>041-046>048-054>057-064-010900-
   West Central Minnesota

CITY           SKY/WX    TMP DP  RH WIND       PRES   REMARKS
FERGUS FALLS   DRIZZLE   64  64 100 SW3       29.92S
WHEATON        MOCLDY    61  61 100 CALM      29.95R
MORRIS         MOCLDY    64  61  88 E8        29.91F
ALEXANDRIA     CLOUDY    64  58  80 SE7       29.96S
ELBOW LAKE     FAIR      66  63  90 SE3       29.93S
WADENA           N/A     63  55  77 SE3       29.94S
GLENWOOD       MOCLDY    63  57  82 SE7       29.95F
APPLETON       PTCLDY    64  59  82 SE6       29.91S
BENSON         PTCLDY    64  57  77 S6        29.92F
ORTONVILLE     PTCLDY    64  59  82 E3        29.92R
MADISON        PTCLDY    63  59  88 SE5       29.91S
WILLMAR        FAIR      64  59  82 SE7       29.95F
$$
MNZ033>034-036-042>043-049>051-058-059-010900-
   Central Minnesota

CITY           SKY/WX    TMP DP  RH WIND       PRES   REMARKS
ST CLOUD       CLOUDY    61  56  83 SE5       29.95F
SAUK CENTRE    FAIR      61  58  89 SE5       29.95S
PAYNESVILLE    PTCLDY    61  55  81 E6        29.96R
AITKIN         MOCLDY    55  48  76 CALM      29.95F
PINE RIVER     MOCLDY    59  55  88 SE3       29.99S
BRAINERD       CLOUDY    60  53  77 CALM      29.96F
STAPLES        CLOUDY    63  55  77 SE6       29.95S
LONG PRAIRIE   CLOUDY    61  57  88 SE5       29.95F
LITTLE FALLS   CLOUDY    61  54  77 CALM      29.96S
LITCHFIELD     MOCLDY    63  57  82 SE6       29.96R
BUFFALO        CLOUDY    62  55  78 CALM      29.98R
MAPLE LAKE     CLOUDY    63  57  80 E3        29.97S
$$
MNZ037-044-045-052-053-010900-
   East Central Minnesota

CITY           SKY/WX    TMP DP  RH WIND       PRES   REMARKS
PRINCETON      CLOUDY    61  55  82 CALM      29.96F
MORA           PTCLDY    54  52  94 CALM      29.99S
CAMBRIDGE      PTCLDY    61  52  72 CALM      29.96S
RUSH CITY      PTCLDY    54  52  92 CALM      29.98S
MOOSE LAKE     CLEAR     48  48 100 CALM      29.96F
HINCKLEY       FAIR      52  52 100 CALM      29.98S
CLOQUET          N/A     46  45  93 CALM      29.99S FOG
MCGREGOR       MOCLDY    50  50 100 CALM      29.98F
$$
MNZ071>073-080-081-089-090-097-098-010900-
   Southwest Minnesota

CITY           SKY/WX    TMP DP  RH WIND       PRES   REMARKS
MONTEVIDEO     PTCLDY    63  61  94 SE8       29.92F
GRANITE FALLS  PTCLDY    62  58  87 E6        29.93F
CANBY          PTCLDY    60  58  95 NE5       29.92F FOG
MARSHALL       PTCLDY    63  57  82 SE6       29.91
REDWOOD FALLS  PTCLDY    63  57  81 SE7       29.93F
OLIVIA         MOCLDY    61  54  77 SE7       29.93S
PIPESTONE      MOCLDY    64  59  82 SE5       29.92R
WINDOM         PTCLDY    63  57  82 CALM      29.94S
WORTHINGTON    MOCLDY    61  55  82 SE3       29.95R
JACKSON        PTCLDY    61  59  94 E7        29.95S
TRACY          PTCLDY    63  59  88 SE7       29.92F
SLAYTON        MOCLDY    60  60  99 CALM      29.92F
$$
MNZ065>067-074>077-082>085-091>093-010900-
   South Central Minnesota

CITY           SKY/WX    TMP DP  RH WIND       PRES   REMARKS
MANKATO        MOCLDY    63  54  72 E10       29.95S
NEW ULM        MOCLDY    63  57  82 SE8       29.94S
ST JAMES       PTCLDY    61  57  88 E6        29.95F
FAIRMONT       CLEAR     59  52  77 SE7       29.94S
GLENCOE        CLOUDY    62  57  84 E9        29.95S
FARIBAULT      CLOUDY    61  52  72 E3        29.97S
OWATONNA       CLOUDY    59  54  82 E7        29.97S
WASECA         MOCLDY    59  54  82 E7        29.97S
ALBERT LEA     PTCLDY    61  54  77 E7        29.95F
$$
MNZ078>079-086>088-094>096-010900-
   Southeast Minnesota

CITY           SKY/WX    TMP DP  RH WIND       PRES   REMARKS
ROCHESTER      MOCLDY    57  52  83 E6        29.99R
RED WING       PTCLDY    55  50  82 E5        29.96F
STANTON        MOCLDY    59  52  77 E5        29.96S
DODGE CENTER   CLOUDY    57  55  94 E3        29.98R
WINONA         CLEAR     55  52  88 CALM      29.97S
AUSTIN         MOCLDY    57  54  88 E5        29.96F
PRESTON        PTCLDY    55  52  90 N3        29.98R
$$
ABBREVIATIONS USED IN REMARKS
   TC - TEMPERATURES IN CELSIUS
  WCI - WIND CHILL INDEX
   HX - HEAT INDEX
  VSB - VISIBILITY
$$


USA.gov is the U.S. government's official web portal to all federal, state and local government web resources and services.